Miscellaneous Local Product
Issued by NWS North Platte, NE

Home | Current Version | Previous Version | Text Only | Print | Product List | Glossary Off
Versions: 1 2 3 4 5 6 7 8 9 10 11 12 13 14 15 16 17 18 19 20 21 22 23 24 25 26 27 28 29 30 31 32 33 34 35 36 37 38 39 40 41 42 43 44 45 46 47 48 49 50

000
AXUS43 KLBF 070010
MISLBF


WESTERN AND NORTH CENTRAL NEBRASKA HOURLY WEATHER ROUNDUP
NATIONAL WEATHER SERVICE NORTH PLATTE NE
700 PM CDT MON JUL 06 2015

***STATIONS NOT REPORTING VARIABLES SUCH AS SKY/WEATHER OR
PRESSURE ARE PROVIDED BY THE NEBRASKA DEPARTMENT OF
ROADS...RAWS...AND APRS NETWORKS...AND ARE NOT UNDER
NATIONAL WEATHER SERVICE QUALITY CONTROL***

...OBSERVATIONS IN AND NEAR THE EASTERN PANHANDLE OF NEBRASKA...

CITY           SKY/WX    TMP DP  RH WIND       PRES   REMARKS
PINE RIDGE     CLOUDY    70  52  52 N5        30.18F
CHADRON        SUNNY     72  52  49 N5        30.19F
ALLIANCE       CLOUDY    67  54  63 N7        30.20F HAZE
SIDNEY         CLOUDY    68  52  56 NE13      30.22F HAZE
WHITECLAY        N/A     68  52  55 N5          N/A
BIG SPRINGS      N/A     71  54  55 NE12        N/A
$$

...OBSERVATIONS IN NORTH CENTRAL NEBRASKA...

CITY           SKY/WX    TMP DP  RH WIND       PRES   REMARKS
VALENTINE      MOSUNNY   72  53  51 N14G21    30.13F
THEDFORD       MOSUNNY   71  55  57 N12G17    30.14S
AINSWORTH      MOSUNNY   73  55  53 N16       30.12S
O`NEILL        SUNNY     73  55  52 N16G22    30.09R
ORD            MOSUNNY   75  52  44 N17G24    30.06R
BROKEN BOW     MOSUNNY   74  53  48 N17G26    30.09R HAZE
VALENTINE NWR    N/A     72  56  56 N9G17       N/A
SPRINGVIEW       N/A     72  56  56 NW5         N/A
HALSEY           N/A     73  53  48 N9G17       N/A
BREWSTER         N/A     79  57  46 N17         N/A
ROSE             N/A     83  68  60 N16         N/A
NEWPORT          N/A     74  55  52 S7          N/A
SARGENT          N/A     72  53  50 N5G16       N/A
CHAMBERS         N/A     78  52  39 N6G13       N/A
EWING            N/A     73  59  62 N3G13       N/A
$$

...OBSERVATIONS IN SOUTHWEST NEBRASKA AND FAR NORTHEAST COLORADO...

CITY           SKY/WX    TMP DP  RH WIND       PRES   REMARKS
WRAY           FAIR      73  50  44 N14       30.16S HAZE
HOLYOKE        FAIR      73  52  46 NE14      30.17F HAZE
IMPERIAL       PTSUNNY   73  51  46 N15       30.14S
OGALLALA       CLOUDY    72  52  50 N10       30.15F HAZE
NORTH PLATTE   MOSUNNY   73  51  46 N14G24    30.11S
MCCOOK         SUNNY     76  53  44 NE21      30.07S HAZE
LEXINGTON      MOSUNNY   75  54  47 N13       30.07S HAZE
PAXTON           N/A     72  56  56 N8          N/A
GOTHENBURG       N/A     74  49  40 N12         N/A
CALLAWAY         N/A     73  58  59 N8          N/A
$$

...NORTH PLATTE AREA...

CITY           SKY/WX    TMP DP  RH WIND       PRES   REMARKS
AIRPORT        MOSUNNY   73  51  46 N14G24    30.11S
DOWNTOWN         N/A     72  53  50 N9G17       N/A
HILLCREST        N/A     72  53  50 NE16G23     N/A
$$

...SOME WEATHER OBSERVATIONS FROM AROUND THE REGION...

CITY           SKY/WX    TMP DP  RH WIND       PRES   REMARKS
DENVER         CLOUDY    64  53  67 E9        30.26F
LARAMIE        CLOUDY    60  51  72 SE18      30.30F
CHEYENNE       CLOUDY    57  52  83 E9        30.30F HAZE
SCOTTSBLUFF    CLOUDY    68  55  63 NE6       30.21F HAZE
RAPID CITY     CLOUDY    69  53  56 N6        30.18F
PIERRE         SUNNY     73  54  51 N10       30.10F
WINNER         FAIR      75  52  44 N15       30.10F
SIOUX FALLS    MOSUNNY   70  56  61 N14G24    30.05R HAZE
OMAHA          CLOUDY    73  64  73 N15       29.94R
GRAND ISLAND   CLOUDY    74  56  53 N23       30.02F HAZE
KANSAS CITY    TSTM      73  72  96 NE9       29.88S FOG
WICHITA        LGT RAIN  72  69  90 E5        29.87R
HAYS           CLOUDY    77  57  50 N23       29.97R
LIBERAL        CLOUDY    73  61  64 N23       30.04R
GOODLAND       CLOUDY    71  55  56 N21G28    30.12S HAZE
$$



USA.gov is the U.S. government's official web portal to all federal, state and local government web resources and services.